Stündliche Wetter Cauterets

Heute, 20 Oktober, Dienstag

Zeit Temperatur Niederschläge Wind Luftdruck Luftfeuchtigkeit
00:00 +3°C° 0 mm 4 m/S 581 mmHg 66%
01:00 +3°C° 0 mm 4 m/S 581 mmHg 66%
02:00 +3°C° 0 mm 4 m/S 581 mmHg 66%
03:00 +3°C° 0 mm 4 m/S 580 mmHg 65%
04:00 +3°C° 0 mm 4 m/S 580 mmHg 67%
05:00 +3°C° 0 mm 4 m/S 580 mmHg 68%
06:00 +3°C° 0 mm 4 m/S 580 mmHg 69%
07:00 +3°C° 0.4 mm 4 m/S 580 mmHg 73%
08:00 +2°C° 0.4 mm 5 m/S 580 mmHg 76%
09:00 +2°C° 0.4 mm 5 m/S 580 mmHg 80%
10:00 +3°C° 0.4 mm 5 m/S 581 mmHg 79%
11:00 +3°C° 0.4 mm 5 m/S 581 mmHg 78%
12:00 +3°C° 0.4 mm 5 m/S 581 mmHg 77%
13:00 +3°C° 0.3 mm 5 m/S 580 mmHg 78%
14:00 +3°C° 0.3 mm 5 m/S 579 mmHg 78%
15:00 +3°C° 0.3 mm 5 m/S 579 mmHg 79%
16:00 +2°C° 0 mm 5 m/S 578 mmHg 77%
17:00 +2°C° 0 mm 6 m/S 577 mmHg 76%
18:00 +2°C° 0 mm 6 m/S 577 mmHg 75%
19:00 +2°C° 0 mm 6 m/S 577 mmHg 74%
20:00 +2°C° 0 mm 6 m/S 577 mmHg 74%
21:00 +2°C° 0 mm 6 m/S 577 mmHg 74%
22:00 +2°C° 0 mm 6 m/S 577 mmHg 74%
23:00 +2°C° 0 mm 6 m/S 577 mmHg 75%

Morgen, 21 Oktober, Mittwoch

Zeit Temperatur Niederschläge Wind Luftdruck Luftfeuchtigkeit
00:00 +2°C° 0 mm 6 m/S 577 mmHg 75%
01:00 +2°C° 0.1 mm 6 m/S 577 mmHg 77%
02:00 +2°C° 0.1 mm 5 m/S 576 mmHg 78%
03:00 +2°C° 0.1 mm 5 m/S 576 mmHg 80%
04:00 +2°C° 1.1 mm 5 m/S 577 mmHg 83%
05:00 +2°C° 1.1 mm 5 m/S 577 mmHg 87%
06:00 +3°C° 1.1 mm 4 m/S 578 mmHg 91%
07:00 +4°C° 0.2 mm 4 m/S 578 mmHg 88%
08:00 +5°C° 0.2 mm 4 m/S 579 mmHg 86%
09:00 +5°C° 0.2 mm 3 m/S 580 mmHg 84%
10:00 +6°C° 0.1 mm 4 m/S 581 mmHg 78%
11:00 +7°C° 0.1 mm 4 m/S 581 mmHg 72%
12:00 +8°C° 0.1 mm 4 m/S 582 mmHg 65%
13:00 +8°C° 0.1 mm 4 m/S 581 mmHg 67%
14:00 +9°C° 0.1 mm 3 m/S 581 mmHg 68%
15:00 +9°C° 0.1 mm 3 m/S 581 mmHg 69%
16:00 +8°C° 0.1 mm 3 m/S 581 mmHg 74%
17:00 +5°C° 0.1 mm 3 m/S 580 mmHg 78%
18:00 +4°C° 0.1 mm 3 m/S 580 mmHg 82%
19:00 +4°C° 0.2 mm 3 m/S 580 mmHg 82%
20:00 +4°C° 0.2 mm 3 m/S 580 mmHg 81%
21:00 +4°C° 0.2 mm 3 m/S 581 mmHg 81%
22:00 +4°C° 0.1 mm 3 m/S 581 mmHg 81%
23:00 +4°C° 0.1 mm 3 m/S 581 mmHg 81%

übermorgen, 22 Oktober, Donnerstag

Zeit Temperatur Niederschläge Wind Luftdruck Luftfeuchtigkeit
00:00 +4°C° 0.1 mm 3 m/S 581 mmHg 81%
01:00 +4°C° 0.2 mm 3 m/S 581 mmHg 82%
02:00 +4°C° 0.2 mm 3 m/S 581 mmHg 83%
03:00 +3°C° 0.2 mm 3 m/S 581 mmHg 84%
04:00 +3°C° 0.4 mm 3 m/S 581 mmHg 85%
05:00 +3°C° 0.4 mm 3 m/S 581 mmHg 86%
06:00 +2°C° 0.4 mm 3 m/S 581 mmHg 87%
07:00 +3°C° 0.3 mm 3 m/S 582 mmHg 85%
08:00 +4°C° 0.3 mm 3 m/S 582 mmHg 83%
09:00 +5°C° 0.3 mm 3 m/S 583 mmHg 80%
10:00 +5°C° 1.1 mm 3 m/S 583 mmHg 80%
11:00 +5°C° 1.1 mm 3 m/S 583 mmHg 80%
12:00 +5°C° 1.1 mm 3 m/S 583 mmHg 80%
13:00 +5°C° 1.3 mm 3 m/S 582 mmHg 81%
14:00 +6°C° 1.3 mm 2 m/S 582 mmHg 82%
15:00 +6°C° 1.3 mm 2 m/S 582 mmHg 83%
16:00 +5°C° 0.8 mm 2 m/S 582 mmHg 86%
17:00 +4°C° 0.8 mm 2 m/S 582 mmHg 88%
18:00 +4°C° 0.8 mm 2 m/S 581 mmHg 90%
19:00 +4°C° 0.7 mm 2 m/S 582 mmHg 90%
20:00 +4°C° 0.7 mm 2 m/S 582 mmHg 90%
21:00 +4°C° 0.7 mm 2 m/S 582 mmHg 91%
22:00 +5°C° 1.3 mm 1 m/S 582 mmHg 91%
23:00 +4°C° 1.3 mm 1 m/S 582 mmHg 92%

23 Oktober, Freitag

Zeit Temperatur Niederschläge Wind Luftdruck Luftfeuchtigkeit
00:00 +4°C° 1.3 mm 1 m/S 582 mmHg 92%
01:00 +4°C° 0.4 mm 1 m/S 582 mmHg 91%
02:00 +4°C° 0.4 mm 1 m/S 582 mmHg 91%
03:00 +4°C° 0.4 mm 1 m/S 582 mmHg 90%
04:00 +4°C° 0.1 mm 1 m/S 582 mmHg 90%
05:00 +4°C° 0.1 mm 1 m/S 582 mmHg 90%
06:00 +3°C° 0.1 mm 1 m/S 581 mmHg 90%
07:00 +4°C° 0.1 mm 1 m/S 582 mmHg 88%
08:00 +5°C° 0.1 mm 1 m/S 583 mmHg 86%
09:00 +6°C° 0.1 mm 1 m/S 584 mmHg 85%
10:00 +6°C° 0.8 mm 1 m/S 584 mmHg 85%
11:00 +6°C° 0.8 mm 1 m/S 584 mmHg 85%
12:00 +6°C° 0.8 mm 1 m/S 584 mmHg 86%
13:00 +6°C° 0.8 mm 1 m/S 584 mmHg 86%
14:00 +5°C° 0.8 mm 1 m/S 584 mmHg 86%
15:00 +5°C° 0.8 mm 1 m/S 584 mmHg 86%
16:00 +4°C° 0.6 mm 1 m/S 583 mmHg 88%
17:00 +3°C° 0.6 mm 1 m/S 583 mmHg 91%
18:00 +2°C° 0.6 mm 1 m/S 583 mmHg 93%
19:00 +2°C° 0.1 mm 1 m/S 583 mmHg 93%
20:00 +2°C° 0.1 mm 1 m/S 584 mmHg 93%
21:00 +1°C° 0.1 mm 1 m/S 584 mmHg 93%
22:00 +1°C° 0 mm 1 m/S 584 mmHg 92%
23:00 +1°C° 0 mm 1 m/S 584 mmHg 92%

24 Oktober, Samstag

Zeit Temperatur Niederschläge Wind Luftdruck Luftfeuchtigkeit
00:00 0°C° 0 mm 1 m/S 583 mmHg 91%
01:00 0°C° 0 mm 1 m/S 583 mmHg 91%
02:00 0°C° 0 mm 1 m/S 583 mmHg 92%
03:00 0°C° 0 mm 1 m/S 583 mmHg 92%
04:00 0°C° 0 mm 1 m/S 583 mmHg 90%
05:00 0°C° 0 mm 1 m/S 583 mmHg 89%
06:00 -1°C° 0 mm 1 m/S 583 mmHg 88%
07:00 +1°C° 0 mm 1 m/S 584 mmHg 82%
08:00 +3°C° 0 mm 1 m/S 585 mmHg 76%
09:00 +4°C° 0 mm 0 m/S 586 mmHg 70%
10:00 +6°C° 0 mm 1 m/S 586 mmHg 66%
11:00 +7°C° 0 mm 1 m/S 586 mmHg 62%
12:00 +8°C° 0 mm 1 m/S 587 mmHg 59%
13:00 +7°C° 0 mm 1 m/S 586 mmHg 62%
14:00 +7°C° 0 mm 1 m/S 586 mmHg 64%
15:00 +7°C° 0 mm 1 m/S 585 mmHg 67%
16:00 +5°C° 0 mm 1 m/S 584 mmHg 74%
17:00 +4°C° 0 mm 1 m/S 583 mmHg 80%
18:00 +2°C° 0 mm 1 m/S 582 mmHg 87%
19:00 +2°C° 0 mm 1 m/S 582 mmHg 84%
20:00 -1°C° 0 mm 2 m/S 582 mmHg 80%
21:00 -1°C° 0 mm 2 m/S 582 mmHg 77%
22:00 -1°C° 0 mm 2 m/S 582 mmHg 74%
23:00 -1°C° 0 mm 3 m/S 581 mmHg 72%

25 Oktober, Sonntag

Zeit Temperatur Niederschläge Wind Luftdruck Luftfeuchtigkeit
00:00 -1°C° 0 mm 3 m/S 581 mmHg 70%
01:00 -1°C° 0 mm 3 m/S 581 mmHg 70%
02:00 -1°C° 0 mm 3 m/S 580 mmHg 70%
03:00 -1°C° 0 mm 3 m/S 580 mmHg 70%
04:00 -1°C° 0 mm 3 m/S 580 mmHg 68%
05:00 -1°C° 0 mm 3 m/S 580 mmHg 66%
06:00 -1°C° 0 mm 3 m/S 580 mmHg 64%
07:00 +1°C° 0 mm 3 m/S 580 mmHg 61%
08:00 +3°C° 0 mm 3 m/S 581 mmHg 59%
09:00 +4°C° 0 mm 3 m/S 582 mmHg 56%
10:00 +6°C° 0 mm 2 m/S 582 mmHg 54%
11:00 +7°C° 0 mm 2 m/S 583 mmHg 51%
12:00 +8°C° 0 mm 2 m/S 583 mmHg 49%
13:00 +7°C° 0 mm 3 m/S 582 mmHg 56%
14:00 +5°C° 0 mm 3 m/S 581 mmHg 63%
15:00 +4°C° 0 mm 3 m/S 581 mmHg 70%
16:00 +2°C° 1.6 mm 3 m/S 580 mmHg 79%
17:00 0°C° 1.6 mm 3 m/S 579 mmHg 88%
18:00 -2°C° 1.6 mm 3 m/S 579 mmHg 97%
19:00 -3°C° 2.4 mm 2 m/S 579 mmHg 96%
20:00 -4°C° 2.4 mm 2 m/S 579 mmHg 96%
21:00 -5°C° 2.4 mm 2 m/S 579 mmHg 95%
22:00 -5°C° 1 mm 2 m/S 579 mmHg 95%
23:00 -6°C° 1 mm 3 m/S 579 mmHg 95%

26 Oktober, Montag

Zeit Temperatur Niederschläge Wind Luftdruck Luftfeuchtigkeit
00:00 -6°C° 1 mm 3 m/S 579 mmHg 96%
01:00 -6°C° 0.5 mm 3 m/S 579 mmHg 95%
02:00 -6°C° 0.5 mm 3 m/S 579 mmHg 95%
03:00 -6°C° 0.5 mm 3 m/S 579 mmHg 95%
04:00 -6°C° 0.9 mm 3 m/S 579 mmHg 95%
05:00 -5°C° 0.9 mm 2 m/S 579 mmHg 95%
06:00 -5°C° 0.9 mm 2 m/S 580 mmHg 95%
07:00 -6°C° 1.2 mm 3 m/S 580 mmHg 95%
08:00 -6°C° 1.2 mm 3 m/S 581 mmHg 94%
09:00 -5°C° 1.2 mm 3 m/S 581 mmHg 93%
10:00 -5°C° 0.6 mm 3 m/S 582 mmHg 92%
11:00 -5°C° 0.6 mm 3 m/S 582 mmHg 91%
12:00 -4°C° 0.6 mm 3 m/S 582 mmHg 90%
13:00 -4°C° 0.3 mm 3 m/S 582 mmHg 90%
14:00 -4°C° 0.3 mm 3 m/S 582 mmHg 89%
15:00 -4°C° 0.3 mm 3 m/S 582 mmHg 89%
16:00 -5°C° 0.1 mm 3 m/S 582 mmHg 90%
17:00 -5°C° 0.1 mm 3 m/S 582 mmHg 91%
18:00 -5°C° 0.1 mm 3 m/S 582 mmHg 93%
19:00 -5°C° 0 mm 3 m/S 583 mmHg 92%
20:00 -5°C° 0 mm 3 m/S 583 mmHg 92%
21:00 -5°C° 0 mm 3 m/S 583 mmHg 92%
22:00 -5°C° 0 mm 3 m/S 583 mmHg 92%
23:00 -5°C° 0 mm 3 m/S 583 mmHg 93%
Mehr zeigen